Time,TemperatureF,DewpointF,PressureIn,WindDirection,WindDirectionDegrees,WindSpeedMPH,WindSpeedGustMPH,Humidity,HourlyPrecipIn,Conditions,Clouds,dailyrainin,SolarRadiationWatts/m^2,SoftwareType,DateUTC
2013-02-15 00:00:00,39.3,32.7,30.09,SSW,195,1.0,2.0,77,0.00,,,0.01,0,WeatherCatV1.10B1570,2013-02-15 05:00:00,
2013-02-15 00:05:00,39.2,32.9,30.09,SSW,195,1.0,3.0,78,0.00,,,0.00,0,WeatherCatV1.10B1570,2013-02-15 05:05:00,
2013-02-15 00:10:00,39.2,32.6,30.09,SSW,195,2.0,2.0,77,0.00,,,0.00,0,WeatherCatV1.10B1570,2013-02-15 05:10:00,
2013-02-15 00:15:00,39.1,32.8,30.09,SSW,194,1.0,3.0,78,0.00,,,0.00,0,WeatherCatV1.10B1570,2013-02-15 05:15:00,
2013-02-15 00:20:00,38.8,32.5,30.10,SSW,194,1.0,2.0,78,0.00,,,0.00,0,WeatherCatV1.10B1570,2013-02-15 05:20:00,
2013-02-15 00:25:00,38.8,32.9,30.10,SSW,194,2.0,2.0,79,0.00,,,0.00,0,WeatherCatV1.10B1570,2013-02-15 05:25:00,
2013-02-15 00:30:00,38.9,33.0,30.10,SSW,194,1.0,2.0,79,0.00,,,0.00,0,WeatherCatV1.10B1570,2013-02-15 05:30:00,
2013-02-15 00:35:00,38.9,33.0,30.10,SSW,194,1.0,3.0,79,0.00,,,0.00,0,WeatherCatV1.10B1570,2013-02-15 05:35:00,
2013-02-15 00:40:00,38.8,32.9,30.10,SSW,194,0.0,2.0,79,0.00,,,0.00,0,WeatherCatV1.10B1570,2013-02-15 05:40:00,
2013-02-15 00:45:00,38.7,32.8,30.11,SSW,194,1.0,2.0,79,0.00,,,0.00,0,WeatherCatV1.10B1570,2013-02-15 05:45:00,
2013-02-15 00:50:00,38.3,32.7,30.11,SSW,194,0.0,0.0,80,0.00,,,0.00,0,WeatherCatV1.10B1570,2013-02-15 05:50:00,
2013-02-15 00:55:00,38.3,32.7,30.11,SSW,194,0.0,0.0,80,0.00,,,0.00,0,WeatherCatV1.10B1570,2013-02-15 05:55:00,
2013-02-15 01:00:00,38.5,32.9,30.11,SSW,194,1.0,1.0,80,0.00,,,0.00,0,WeatherCatV1.10B1570,2013-02-15 06:00:00,
2013-02-15 01:05:00,38.6,33.0,30.11,SSW,197,0.0,2.0,80,0.00,,,0.00,0,WeatherCatV1.10B1570,2013-02-15 06:05:00,
2013-02-15 01:10:00,38.6,33.0,30.11,SSW,197,1.0,2.0,80,0.00,,,0.00,0,WeatherCatV1.10B1570,2013-02-15 06:10:00,
2013-02-15 01:15:00,38.6,33.0,30.11,SSW,197,1.0,2.0,80,0.00,,,0.00,0,WeatherCatV1.10B1570,2013-02-15 06:15:00,
2013-02-15 01:20:00,38.4,33.1,30.11,West,261,0.0,1.0,81,0.00,,,0.00,0,WeatherCatV1.10B1570,2013-02-15 06:20:00,
2013-02-15 01:25:00,38.5,33.2,30.11,West,261,0.0,1.0,81,0.00,,,0.00,0,WeatherCatV1.10B1570,2013-02-15 06:25:00,
2013-02-15 01:30:00,37.9,32.9,30.11,WSW,242,1.0,1.0,82,0.00,,,0.00,0,WeatherCatV1.10B1570,2013-02-15 06:30:00,
2013-02-15 01:35:00,37.5,32.8,30.11,WSW,242,0.0,0.0,83,0.00,,,0.00,0,WeatherCatV1.10B1570,2013-02-15 06:35:00,
2013-02-15 01:40:00,37.5,33.1,30.11,WSW,242,0.0,0.0,84,0.00,,,0.00,0,WeatherCatV1.10B1570,2013-02-15 06:40:00,
2013-02-15 01:45:00,37.9,33.2,30.11,WSW,242,0.0,0.0,83,0.00,,,0.00,0,WeatherCatV1.10B1570,2013-02-15 06:45:00,
2013-02-15 01:50:00,38.2,33.5,30.11,WSW,242,0.0,0.0,83,0.00,,,0.00,0,WeatherCatV1.10B1570,2013-02-15 06:50:00,
2013-02-15 01:55:00,38.3,33.6,30.11,WSW,242,0.0,0.0,83,0.00,,,0.00,0,WeatherCatV1.10B1570,2013-02-15 06:55:00,
2013-02-15 02:00:00,38.5,33.5,30.11,WSW,242,0.0,0.0,82,0.00,,,0.00,0,WeatherCatV1.10B1570,2013-02-15 07:00:00,
2013-02-15 02:05:00,37.7,33.0,30.11,WSW,242,0.0,0.0,83,0.00,,,0.00,0,WeatherCatV1.10B1570,2013-02-15 07:05:00,
2013-02-15 02:10:00,37.2,33.1,30.11,WSW,242,0.0,0.0,85,0.00,,,0.00,0,WeatherCatV1.10B1570,2013-02-15 07:10:00,
2013-02-15 02:15:00,38.0,33.6,30.10,WSW,242,0.0,0.0,84,0.00,,,0.00,0,WeatherCatV1.10B1570,2013-02-15 07:15:00,
2013-02-15 02:20:00,38.7,34.3,30.10,WSW,258,1.0,1.0,84,0.00,,,0.00,0,WeatherCatV1.10B1570,2013-02-15 07:20:00,
2013-02-15 02:25:00,38.7,34.0,30.10,WSW,251,0.0,0.0,83,0.00,,,0.00,0,WeatherCatV1.10B1570,2013-02-15 07:25:00,
2013-02-15 02:30:00,38.0,33.6,30.10,WSW,251,0.0,2.0,84,0.00,,,0.00,0,WeatherCatV1.10B1570,2013-02-15 07:30:00,
2013-02-15 02:35:00,37.6,33.5,30.10,WSW,251,1.0,2.0,85,0.00,,,0.00,0,WeatherCatV1.10B1570,2013-02-15 07:35:00,
2013-02-15 02:40:00,37.5,33.7,30.10,WSW,251,0.0,1.0,86,0.00,,,0.00,0,WeatherCatV1.10B1570,2013-02-15 07:40:00,
2013-02-15 02:45:00,37.9,33.8,30.10,WSW,251,0.0,1.0,85,0.00,,,0.00,0,WeatherCatV1.10B1570,2013-02-15 07:45:00,
2013-02-15 02:50:00,37.8,33.7,30.10,WSW,251,0.0,2.0,85,0.00,,,0.00,0,WeatherCatV1.10B1570,2013-02-15 07:50:00,
2013-02-15 02:55:00,38.0,33.9,30.10,WSW,246,1.0,2.0,85,0.00,,,0.00,0,WeatherCatV1.10B1570,2013-02-15 07:55:00,
2013-02-15 03:00:00,38.1,34.0,30.10,SW,228,1.0,2.0,85,0.00,,,0.00,0,WeatherCatV1.10B1570,2013-02-15 08:00:00,
2013-02-15 03:05:00,38.1,34.0,30.10,SW,230,1.0,3.0,85,0.00,,,0.00,0,WeatherCatV1.10B1570,2013-02-15 08:05:00,
2013-02-15 03:10:00,38.1,34.0,30.09,WSW,250,1.0,2.0,85,0.00,,,0.00,0,WeatherCatV1.10B1570,2013-02-15 08:10:00,
2013-02-15 03:15:00,38.1,34.0,30.09,West,261,0.0,1.0,85,0.00,,,0.00,0,WeatherCatV1.10B1570,2013-02-15 08:15:00,
2013-02-15 03:20:00,37.9,33.8,30.09,SW,229,1.0,2.0,85,0.00,,,0.00,0,WeatherCatV1.10B1570,2013-02-15 08:20:00,
2013-02-15 03:25:00,37.9,33.8,30.09,SW,228,1.0,6.0,85,0.00,,,0.00,0,WeatherCatV1.10B1570,2013-02-15 08:25:00,
2013-02-15 03:30:00,37.7,33.9,30.09,SW,226,0.0,2.0,86,0.00,,,0.00,0,WeatherCatV1.10B1570,2013-02-15 08:30:00,
2013-02-15 03:35:00,37.8,34.0,30.09,SW,236,0.0,2.0,86,0.00,,,0.00,0,WeatherCatV1.10B1570,2013-02-15 08:35:00,
2013-02-15 03:40:00,38.0,34.2,30.09,SSW,202,0.0,3.0,86,0.00,,,0.00,0,WeatherCatV1.10B1570,2013-02-15 08:40:00,
2013-02-15 03:45:00,38.1,34.0,30.09,West,278,1.0,3.0,85,0.00,,,0.00,0,WeatherCatV1.10B1570,2013-02-15 08:45:00,
2013-02-15 03:50:00,37.7,33.6,30.09,West,278,0.0,2.0,85,0.00,,,0.00,0,WeatherCatV1.10B1570,2013-02-15 08:50:00,
2013-02-15 03:55:00,37.5,34.0,30.09,West,280,1.0,3.0,87,0.00,,,0.00,0,WeatherCatV1.10B1570,2013-02-15 08:55:00,
2013-02-15 04:00:00,38.0,34.2,30.09,WSW,238,1.0,3.0,86,0.00,,,0.00,0,WeatherCatV1.10B1570,2013-02-15 09:00:00,
2013-02-15 04:05:00,38.1,34.3,30.09,WSW,257,1.0,2.0,86,0.00,,,0.00,0,WeatherCatV1.10B1570,2013-02-15 09:05:00,
2013-02-15 04:10:00,38.2,34.4,30.09,WSW,240,0.0,1.0,86,0.00,,,0.00,0,WeatherCatV1.10B1570,2013-02-15 09:10:00,
2013-02-15 04:15:00,37.9,34.1,30.09,WSW,240,0.0,0.0,86,0.00,,,0.00,0,WeatherCatV1.10B1570,2013-02-15 09:15:00,
2013-02-15 04:20:00,38.0,34.2,30.09,SW,232,0.0,1.0,86,0.00,,,0.00,0,WeatherCatV1.10B1570,2013-02-15 09:20:00,
2013-02-15 04:25:00,37.9,34.1,30.09,SW,232,0.0,1.0,86,0.00,,,0.00,0,WeatherCatV1.10B1570,2013-02-15 09:25:00,
2013-02-15 04:30:00,37.9,34.1,30.09,SW,232,0.0,0.0,86,0.00,,,0.00,0,WeatherCatV1.10B1570,2013-02-15 09:30:00,
2013-02-15 04:35:00,37.7,33.9,30.09,SW,232,1.0,2.0,86,0.00,,,0.00,0,WeatherCatV1.10B1570,2013-02-15 09:35:00,
2013-02-15 04:40:00,37.6,33.8,30.09,SW,232,1.0,1.0,86,0.00,,,0.00,0,WeatherCatV1.10B1570,2013-02-15 09:40:00,
2013-02-15 04:45:00,37.4,33.9,30.09,SW,234,0.0,1.0,87,0.00,,,0.00,0,WeatherCatV1.10B1570,2013-02-15 09:45:00,
2013-02-15 04:50:00,37.3,33.8,30.10,SW,234,0.0,2.0,87,0.00,,,0.00,0,WeatherCatV1.10B1570,2013-02-15 09:50:00,
2013-02-15 04:55:00,37.2,33.7,30.10,SW,234,0.0,2.0,87,0.00,,,0.00,0,WeatherCatV1.10B1570,2013-02-15 09:55:00,
2013-02-15 05:00:00,37.4,33.9,30.10,SW,234,0.0,3.0,87,0.00,,,0.00,0,WeatherCatV1.10B1570,2013-02-15 10:00:00,
2013-02-15 05:05:00,37.5,34.0,30.10,SW,234,1.0,2.0,87,0.00,,,0.00,0,WeatherCatV1.10B1570,2013-02-15 10:05:00,
2013-02-15 05:10:00,37.4,33.9,30.10,SW,236,1.0,3.0,87,0.00,,,0.00,0,WeatherCatV1.10B1570,2013-02-15 10:10:00,
2013-02-15 05:15:00,37.5,34.0,30.10,SW,236,1.0,2.0,87,0.00,,,0.00,0,WeatherCatV1.10B1570,2013-02-15 10:15:00,
2013-02-15 05:20:00,37.5,34.0,30.10,WSW,248,1.0,2.0,87,0.00,,,0.00,0,WeatherCatV1.10B1570,2013-02-15 10:20:00,
2013-02-15 05:25:00,37.2,33.7,30.10,WSW,248,1.0,2.0,87,0.00,,,0.00,0,WeatherCatV1.10B1570,2013-02-15 10:25:00,
2013-02-15 05:30:00,37.1,33.9,30.10,WSW,253,1.0,2.0,88,0.00,,,0.00,0,WeatherCatV1.10B1570,2013-02-15 10:30:00,
2013-02-15 05:35:00,37.0,33.8,30.09,WSW,253,0.0,1.0,88,0.00,,,0.00,0,WeatherCatV1.10B1570,2013-02-15 10:35:00,
2013-02-15 05:40:00,36.8,33.6,30.09,WSW,253,1.0,1.0,88,0.00,,,0.00,0,WeatherCatV1.10B1570,2013-02-15 10:40:00,
2013-02-15 05:45:00,36.6,33.7,30.09,WSW,253,1.0,2.0,89,0.00,,,0.00,0,WeatherCatV1.10B1570,2013-02-15 10:45:00,
2013-02-15 05:50:00,36.6,33.7,30.09,WSW,253,1.0,1.0,89,0.00,,,0.00,0,WeatherCatV1.10B1570,2013-02-15 10:50:00,
2013-02-15 05:55:00,36.8,33.6,30.09,WSW,252,0.0,2.0,88,0.00,,,0.00,0,WeatherCatV1.10B1570,2013-02-15 10:55:00,
2013-02-15 06:00:00,36.7,33.5,30.09,WSW,252,1.0,1.0,88,0.00,,,0.00,0,WeatherCatV1.10B1570,2013-02-15 11:00:00,
2013-02-15 06:05:00,36.5,33.6,30.09,WSW,252,0.0,1.0,89,0.00,,,0.00,0,WeatherCatV1.10B1570,2013-02-15 11:05:00,
2013-02-15 06:10:00,36.5,33.6,30.10,WSW,253,0.0,0.0,89,0.00,,,0.00,0,WeatherCatV1.10B1570,2013-02-15 11:10:00,
2013-02-15 06:15:00,36.4,33.5,30.10,WSW,252,1.0,1.0,89,0.00,,,0.00,0,WeatherCatV1.10B1570,2013-02-15 11:15:00,
2013-02-15 06:20:00,36.3,33.4,30.10,WSW,252,0.0,2.0,89,0.00,,,0.00,0,WeatherCatV1.10B1570,2013-02-15 11:20:00,
2013-02-15 06:25:00,36.1,33.2,30.10,WSW,252,1.0,1.0,89,0.00,,,0.00,0,WeatherCatV1.10B1570,2013-02-15 11:25:00,
2013-02-15 06:30:00,35.8,33.2,30.10,WSW,252,0.0,1.0,90,0.00,,,0.00,0,WeatherCatV1.10B1570,2013-02-15 11:30:00,
2013-02-15 06:35:00,35.8,33.2,30.11,SW,228,1.0,2.0,90,0.00,,,0.00,0,WeatherCatV1.10B1570,2013-02-15 11:35:00,
2013-02-15 06:40:00,35.9,33.3,30.11,SW,228,1.0,2.0,90,0.00,,,0.00,0,WeatherCatV1.10B1570,2013-02-15 11:40:00,
2013-02-15 06:45:00,35.7,32.8,30.11,SW,228,1.0,2.0,89,0.00,,,0.00,0,WeatherCatV1.10B1570,2013-02-15 11:45:00,
2013-02-15 06:50:00,35.5,32.9,30.11,West,260,2.0,2.0,90,0.00,,,0.00,0,WeatherCatV1.10B1570,2013-02-15 11:50:00,
2013-02-15 06:55:00,35.6,33.2,30.11,West,276,0.0,1.0,91,0.00,,,0.00,0,WeatherCatV1.10B1570,2013-02-15 11:55:00,
2013-02-15 07:00:00,35.5,32.9,30.10,West,274,2.0,2.0,90,0.00,,,0.00,0,WeatherCatV1.10B1570,2013-02-15 12:00:00,
2013-02-15 07:05:00,35.7,33.3,30.10,West,274,0.0,0.0,91,0.00,,,0.00,0,WeatherCatV1.10B1570,2013-02-15 12:05:00,
2013-02-15 07:10:00,35.2,32.8,30.11,West,274,0.0,2.0,91,0.00,,,0.00,7,WeatherCatV1.10B1570,2013-02-15 12:10:00,
2013-02-15 07:15:00,35.6,33.5,30.11,West,274,2.0,2.0,92,0.00,,,0.00,9,WeatherCatV1.10B1570,2013-02-15 12:15:00,
2013-02-15 07:20:00,35.7,33.1,30.11,West,274,1.0,2.0,90,0.00,,,0.00,12,WeatherCatV1.10B1570,2013-02-15 12:20:00,
2013-02-15 07:25:00,35.6,33.0,30.11,West,274,0.0,0.0,90,0.00,,,0.00,16,WeatherCatV1.10B1570,2013-02-15 12:25:00,
2013-02-15 07:30:00,33.4,31.1,30.11,West,274,0.0,0.0,91,0.00,,,0.00,18,WeatherCatV1.10B1570,2013-02-15 12:30:00,
2013-02-15 07:35:00,33.9,32.4,30.11,West,274,1.0,2.0,94,0.00,,,0.00,23,WeatherCatV1.10B1570,2013-02-15 12:35:00,
2013-02-15 07:40:00,35.4,33.6,30.12,West,274,0.0,0.0,93,0.00,,,0.00,32,WeatherCatV1.10B1570,2013-02-15 12:40:00,
2013-02-15 07:45:00,34.6,32.2,30.12,West,274,0.0,0.0,91,0.00,,,0.00,47,WeatherCatV1.10B1570,2013-02-15 12:45:00,
2013-02-15 07:50:00,35.1,33.0,30.12,West,274,0.0,0.0,92,0.00,,,0.00,74,WeatherCatV1.10B1570,2013-02-15 12:50:00,
2013-02-15 07:55:00,36.3,33.9,30.12,West,274,1.0,2.0,91,0.00,,,0.00,84,WeatherCatV1.10B1570,2013-02-15 12:55:00,
2013-02-15 08:00:00,36.8,33.9,30.12,West,274,1.0,2.0,89,0.00,,,0.00,104,WeatherCatV1.10B1570,2013-02-15 13:00:00,
2013-02-15 08:05:00,37.2,34.0,30.12,West,274,0.0,1.0,88,0.00,,,0.00,121,WeatherCatV1.10B1570,2013-02-15 13:05:00,
2013-02-15 08:10:00,37.8,34.3,30.12,West,259,2.0,3.0,87,0.00,,,0.00,139,WeatherCatV1.10B1570,2013-02-15 13:10:00,
2013-02-15 08:15:00,38.1,34.6,30.13,West,259,0.0,0.0,87,0.00,,,0.00,158,WeatherCatV1.10B1570,2013-02-15 13:15:00,
2013-02-15 08:20:00,38.4,34.6,30.13,West,259,2.0,2.0,86,0.00,,,0.00,176,WeatherCatV1.10B1570,2013-02-15 13:20:00,
2013-02-15 08:25:00,38.9,34.5,30.13,SW,216,2.0,4.0,84,0.00,,,0.00,193,WeatherCatV1.10B1570,2013-02-15 13:25:00,
2013-02-15 08:30:00,39.5,34.8,30.13,West,264,1.0,4.0,83,0.00,,,0.00,209,WeatherCatV1.10B1570,2013-02-15 13:30:00,
2013-02-15 08:35:00,40.1,34.7,30.13,SW,228,1.0,3.0,81,0.00,,,0.00,223,WeatherCatV1.10B1570,2013-02-15 13:35:00,
2013-02-15 08:40:00,40.7,35.3,30.13,WSW,245,1.0,4.0,81,0.00,,,0.00,241,WeatherCatV1.10B1570,2013-02-15 13:40:00,
2013-02-15 08:45:00,41.5,35.5,30.13,SW,227,0.0,1.0,79,0.00,,,0.00,260,WeatherCatV1.10B1570,2013-02-15 13:45:00,
2013-02-15 08:50:00,42.2,35.2,30.13,SW,224,3.0,5.0,76,0.00,,,0.00,278,WeatherCatV1.10B1570,2013-02-15 13:50:00,
2013-02-15 08:55:00,42.9,35.2,30.13,WSW,247,2.0,2.0,74,0.00,,,0.00,294,WeatherCatV1.10B1570,2013-02-15 13:55:00,
2013-02-15 09:00:00,43.5,35.1,30.13,West,264,3.0,4.0,72,0.00,,,0.00,309,WeatherCatV1.10B1570,2013-02-15 14:00:00,
2013-02-15 09:05:00,43.7,35.3,30.13,West,275,2.0,3.0,72,0.00,,,0.00,325,WeatherCatV1.10B1570,2013-02-15 14:05:00,
2013-02-15 09:10:00,44.2,35.4,30.13,WNW,299,4.0,4.0,71,0.00,,,0.00,339,WeatherCatV1.10B1570,2013-02-15 14:10:00,
2013-02-15 09:15:00,44.7,35.5,30.13,West,272,3.0,5.0,70,0.00,,,0.00,357,WeatherCatV1.10B1570,2013-02-15 14:15:00,
2013-02-15 09:20:00,45.4,35.5,30.13,West,280,1.0,3.0,68,0.00,,,0.00,371,WeatherCatV1.10B1570,2013-02-15 14:20:00,
2013-02-15 09:25:00,46.3,36.3,30.14,WSW,249,2.0,3.0,68,0.00,,,0.00,387,WeatherCatV1.10B1570,2013-02-15 14:25:00,
2013-02-15 09:30:00,46.5,35.4,30.14,WNW,290,5.0,6.0,65,0.00,,,0.00,411,WeatherCatV1.10B1570,2013-02-15 14:30:00,
2013-02-15 09:35:00,46.8,35.7,30.13,SW,221,1.0,5.0,65,0.00,,,0.00,431,WeatherCatV1.10B1570,2013-02-15 14:35:00,
2013-02-15 09:40:00,47.2,35.7,30.13,West,262,3.0,5.0,64,0.00,,,0.00,429,WeatherCatV1.10B1570,2013-02-15 14:40:00,
2013-02-15 09:45:00,47.6,35.6,30.13,WNW,288,3.0,6.0,63,0.00,,,0.00,438,WeatherCatV1.10B1570,2013-02-15 14:45:00,
2013-02-15 09:50:00,48.3,35.9,30.13,WNW,297,4.0,4.0,62,0.00,,,0.00,454,WeatherCatV1.10B1570,2013-02-15 14:50:00,
2013-02-15 09:55:00,48.4,35.6,30.13,WNW,291,4.0,6.0,61,0.00,,,0.00,466,WeatherCatV1.10B1570,2013-02-15 14:55:00,
2013-02-15 10:00:00,48.6,35.8,30.13,West,260,2.0,5.0,61,0.00,,,0.00,478,WeatherCatV1.10B1570,2013-02-15 15:00:00,
2013-02-15 10:05:00,49.2,36.3,30.13,NW,308,2.0,3.0,61,0.00,,,0.00,490,WeatherCatV1.10B1570,2013-02-15 15:05:00,
2013-02-15 10:10:00,49.3,36.0,30.13,WNW,297,3.0,5.0,60,0.00,,,0.00,503,WeatherCatV1.10B1570,2013-02-15 15:10:00,
2013-02-15 10:15:00,49.7,36.0,30.13,NW,304,1.0,4.0,59,0.00,,,0.00,515,WeatherCatV1.10B1570,2013-02-15 15:15:00,
2013-02-15 10:20:00,50.3,36.1,30.12,WNW,284,2.0,5.0,58,0.00,,,0.00,526,WeatherCatV1.10B1570,2013-02-15 15:20:00,
2013-02-15 10:25:00,51.0,36.3,30.12,West,278,0.0,3.0,57,0.00,,,0.00,538,WeatherCatV1.10B1570,2013-02-15 15:25:00,
2013-02-15 10:30:00,51.3,36.6,30.12,West,278,4.0,6.0,57,0.00,,,0.00,550,WeatherCatV1.10B1570,2013-02-15 15:30:00,
2013-02-15 10:35:00,51.6,36.4,30.12,SW,235,1.0,2.0,56,0.00,,,0.00,561,WeatherCatV1.10B1570,2013-02-15 15:35:00,
2013-02-15 10:40:00,52.2,36.5,30.12,WSW,249,1.0,4.0,55,0.00,,,0.00,573,WeatherCatV1.10B1570,2013-02-15 15:40:00,
2013-02-15 10:45:00,53.2,37.0,30.12,West,272,2.0,3.0,54,0.00,,,0.00,580,WeatherCatV1.10B1570,2013-02-15 15:45:00,
2013-02-15 10:50:00,53.1,37.4,30.12,North,354,4.0,5.0,55,0.00,,,0.00,591,WeatherCatV1.10B1570,2013-02-15 15:50:00,
2013-02-15 10:55:00,53.8,36.6,30.12,WSW,258,1.0,3.0,52,0.00,,,0.00,598,WeatherCatV1.10B1570,2013-02-15 15:55:00,
2013-02-15 11:00:00,54.1,36.9,30.11,West,268,4.0,4.0,52,0.00,,,0.00,608,WeatherCatV1.10B1570,2013-02-15 16:00:00,
2013-02-15 11:05:00,54.7,36.4,30.11,South,190,0.0,3.0,50,0.00,,,0.00,621,WeatherCatV1.10B1570,2013-02-15 16:05:00,
2013-02-15 11:10:00,55.3,35.9,30.11,SW,221,2.0,5.0,48,0.00,,,0.00,626,WeatherCatV1.10B1570,2013-02-15 16:10:00,
2013-02-15 11:15:00,55.3,34.9,30.11,West,281,3.0,5.0,46,0.00,,,0.00,635,WeatherCatV1.10B1570,2013-02-15 16:15:00,
2013-02-15 11:20:00,55.5,35.6,30.10,West,263,3.0,4.0,47,0.00,,,0.00,640,WeatherCatV1.10B1570,2013-02-15 16:20:00,
2013-02-15 11:25:00,56.0,36.1,30.10,West,270,3.0,6.0,47,0.00,,,0.00,645,WeatherCatV1.10B1570,2013-02-15 16:25:00,
2013-02-15 11:30:00,56.4,35.3,30.10,South,188,3.0,4.0,45,0.00,,,0.00,650,WeatherCatV1.10B1570,2013-02-15 16:30:00,
2013-02-15 11:35:00,56.8,35.1,30.10,NW,321,3.0,6.0,44,0.00,,,0.00,647,WeatherCatV1.10B1570,2013-02-15 16:35:00,
2013-02-15 11:40:00,56.5,34.9,30.09,WSW,243,4.0,5.0,44,0.00,,,0.00,664,WeatherCatV1.10B1570,2013-02-15 16:40:00,
2013-02-15 11:45:00,56.5,34.9,30.09,WSW,255,2.0,5.0,44,0.00,,,0.00,666,WeatherCatV1.10B1570,2013-02-15 16:45:00,
2013-02-15 11:50:00,56.5,34.9,30.09,SW,229,2.0,3.0,44,0.00,,,0.00,677,WeatherCatV1.10B1570,2013-02-15 16:50:00,
2013-02-15 11:55:00,57.8,34.9,30.09,WSW,249,3.0,7.0,42,0.00,,,0.00,687,WeatherCatV1.10B1570,2013-02-15 16:55:00,
2013-02-15 12:00:00,57.0,33.5,30.09,WNW,293,2.0,5.0,41,0.00,,,0.00,687,WeatherCatV1.10B1570,2013-02-15 17:00:00,
2013-02-15 12:05:00,57.1,33.0,30.08,WSW,250,1.0,6.0,40,0.00,,,0.00,698,WeatherCatV1.10B1570,2013-02-15 17:05:00,
2013-02-15 12:10:00,58.1,33.3,30.08,SSW,194,1.0,8.0,39,0.00,,,0.00,703,WeatherCatV1.10B1570,2013-02-15 17:10:00,
2013-02-15 12:15:00,58.0,30.5,30.08,SW,214,3.0,7.0,35,0.00,,,0.00,705,WeatherCatV1.10B1570,2013-02-15 17:15:00,
2013-02-15 12:20:00,58.3,31.5,30.08,SW,221,6.0,7.0,36,0.00,,,0.00,700,WeatherCatV1.10B1570,2013-02-15 17:20:00,
2013-02-15 12:25:00,57.9,31.8,30.08,SW,224,1.0,4.0,37,0.00,,,0.00,721,WeatherCatV1.10B1570,2013-02-15 17:25:00,
2013-02-15 12:30:00,58.8,31.2,30.07,SSW,209,5.0,5.0,35,0.00,,,0.00,712,WeatherCatV1.10B1570,2013-02-15 17:30:00,
2013-02-15 12:35:00,58.5,30.2,30.07,SSW,197,4.0,8.0,34,0.00,,,0.00,714,WeatherCatV1.10B1570,2013-02-15 17:35:00,
2013-02-15 12:40:00,57.9,31.8,30.07,SSW,210,3.0,8.0,37,0.00,,,0.00,712,WeatherCatV1.10B1570,2013-02-15 17:40:00,
2013-02-15 12:45:00,58.3,29.3,30.06,South,172,3.0,5.0,33,0.00,,,0.00,710,WeatherCatV1.10B1570,2013-02-15 17:45:00,
2013-02-15 12:50:00,58.6,30.3,30.06,SW,227,2.0,4.0,34,0.00,,,0.00,712,WeatherCatV1.10B1570,2013-02-15 17:50:00,
2013-02-15 12:55:00,58.9,31.3,30.06,West,275,3.0,4.0,35,0.00,,,0.00,710,WeatherCatV1.10B1570,2013-02-15 17:55:00,
2013-02-15 13:00:00,58.5,30.2,30.05,South,191,1.0,5.0,34,0.00,,,0.00,696,WeatherCatV1.10B1570,2013-02-15 18:00:00,
2013-02-15 13:05:00,59.1,31.5,30.06,SW,236,5.0,7.0,35,0.00,,,0.00,707,WeatherCatV1.10B1570,2013-02-15 18:05:00,
2013-02-15 13:10:00,59.3,30.2,30.05,NW,313,4.0,6.0,33,0.00,,,0.00,703,WeatherCatV1.10B1570,2013-02-15 18:10:00,
2013-02-15 13:15:00,59.5,31.8,30.04,SSW,206,2.0,5.0,35,0.00,,,0.00,694,WeatherCatV1.10B1570,2013-02-15 18:15:00,
2013-02-15 13:20:00,60.4,31.2,30.04,West,261,7.0,7.0,33,0.00,,,0.00,701,WeatherCatV1.10B1570,2013-02-15 18:20:00,
2013-02-15 13:25:00,59.4,29.5,30.04,NW,325,4.0,6.0,32,0.00,,,0.00,696,WeatherCatV1.10B1570,2013-02-15 18:25:00,
2013-02-15 13:30:00,60.0,31.6,30.04,South,184,2.0,4.0,34,0.00,,,0.00,689,WeatherCatV1.10B1570,2013-02-15 18:30:00,
2013-02-15 13:35:00,59.6,31.2,30.04,SW,223,3.0,7.0,34,0.00,,,0.00,689,WeatherCatV1.10B1570,2013-02-15 18:35:00,
2013-02-15 13:40:00,59.5,31.1,30.03,South,176,3.0,6.0,34,0.00,,,0.00,677,WeatherCatV1.10B1570,2013-02-15 18:40:00,
2013-02-15 13:45:00,59.7,29.8,30.03,WSW,241,4.0,4.0,32,0.00,,,0.00,680,WeatherCatV1.10B1570,2013-02-15 18:45:00,
2013-02-15 13:50:00,59.6,31.2,30.03,SW,226,1.0,4.0,34,0.00,,,0.00,679,WeatherCatV1.10B1570,2013-02-15 18:50:00,
2013-02-15 13:55:00,59.3,30.9,30.02,SSW,201,1.0,8.0,34,0.00,,,0.00,670,WeatherCatV1.10B1570,2013-02-15 18:55:00,
2013-02-15 14:00:00,59.9,31.5,30.02,SSW,194,8.0,13.0,34,0.00,,,0.00,652,WeatherCatV1.10B1570,2013-02-15 19:00:00,
2013-02-15 14:05:00,59.6,29.7,30.02,SSW,195,4.0,4.0,32,0.00,,,0.00,636,WeatherCatV1.10B1570,2013-02-15 19:05:00,
2013-02-15 14:10:00,59.1,29.3,30.02,SSW,197,2.0,5.0,32,0.00,,,0.00,179,WeatherCatV1.10B1570,2013-02-15 19:10:00,
2013-02-15 14:15:00,59.7,31.3,30.01,SSW,199,8.0,8.0,34,0.00,,,0.00,636,WeatherCatV1.10B1570,2013-02-15 19:15:00,
2013-02-15 14:20:00,59.4,29.5,30.01,West,270,2.0,8.0,32,0.00,,,0.00,619,WeatherCatV1.10B1570,2013-02-15 19:20:00,
2013-02-15 14:25:00,59.5,29.6,30.01,SSW,204,3.0,3.0,32,0.00,,,0.00,608,WeatherCatV1.10B1570,2013-02-15 19:25:00,
2013-02-15 14:30:00,59.9,29.2,30.01,SSE,166,5.0,6.0,31,0.00,,,0.00,599,WeatherCatV1.10B1570,2013-02-15 19:30:00,
2013-02-15 14:35:00,59.3,28.7,30.00,NW,322,3.0,6.0,31,0.00,,,0.00,608,WeatherCatV1.10B1570,2013-02-15 19:35:00,
2013-02-15 14:40:00,60.0,29.3,30.00,SSW,208,9.0,9.0,31,0.00,,,0.00,584,WeatherCatV1.10B1570,2013-02-15 19:40:00,
2013-02-15 14:45:00,59.7,28.2,30.00,South,190,0.0,7.0,30,0.00,,,0.00,570,WeatherCatV1.10B1570,2013-02-15 19:45:00,
2013-02-15 14:50:00,60.1,28.6,30.00,SSE,167,3.0,6.0,30,0.00,,,0.00,555,WeatherCatV1.10B1570,2013-02-15 19:50:00,
2013-02-15 14:55:00,59.6,29.7,30.00,SSW,213,2.0,4.0,32,0.00,,,0.00,543,WeatherCatV1.10B1570,2013-02-15 19:55:00,
2013-02-15 15:00:00,59.6,28.1,30.00,SW,230,2.0,7.0,30,0.00,,,0.00,538,WeatherCatV1.10B1570,2013-02-15 20:00:00,
2013-02-15 15:05:00,59.6,28.9,29.99,SSW,205,2.0,5.0,31,0.00,,,0.00,522,WeatherCatV1.10B1570,2013-02-15 20:05:00,
2013-02-15 15:10:00,59.4,28.0,29.99,SSW,197,7.0,7.0,30,0.00,,,0.00,512,WeatherCatV1.10B1570,2013-02-15 20:10:00,
2013-02-15 15:15:00,59.5,28.8,29.99,West,278,1.0,5.0,31,0.00,,,0.00,496,WeatherCatV1.10B1570,2013-02-15 20:15:00,
2013-02-15 15:20:00,60.3,30.3,29.99,West,266,3.0,7.0,32,0.00,,,0.00,480,WeatherCatV1.10B1570,2013-02-15 20:20:00,
2013-02-15 15:25:00,60.1,30.1,29.98,SSW,201,2.0,2.0,32,0.00,,,0.00,469,WeatherCatV1.10B1570,2013-02-15 20:25:00,
2013-02-15 15:30:00,60.0,28.5,29.99,SSW,206,2.0,5.0,30,0.00,,,0.00,459,WeatherCatV1.10B1570,2013-02-15 20:30:00,
2013-02-15 15:35:00,59.5,30.4,29.98,West,268,1.0,3.0,33,0.00,,,0.00,446,WeatherCatV1.10B1570,2013-02-15 20:35:00,
2013-02-15 15:40:00,59.8,29.1,29.98,SSW,207,4.0,7.0,31,0.00,,,0.00,424,WeatherCatV1.10B1570,2013-02-15 20:40:00,
2013-02-15 15:45:00,59.9,29.2,29.98,West,265,7.0,7.0,31,0.00,,,0.00,431,WeatherCatV1.10B1570,2013-02-15 20:45:00,
2013-02-15 15:50:00,59.2,30.1,29.98,SSW,193,3.0,6.0,33,0.00,,,0.00,406,WeatherCatV1.10B1570,2013-02-15 20:50:00,
2013-02-15 15:55:00,58.9,29.9,29.98,SSW,204,3.0,5.0,33,0.00,,,0.00,387,WeatherCatV1.10B1570,2013-02-15 20:55:00,
2013-02-15 16:00:00,58.7,30.4,29.98,SSW,203,2.0,4.0,34,0.00,,,0.00,374,WeatherCatV1.10B1570,2013-02-15 21:00:00,
2013-02-15 16:05:00,59.1,30.8,29.97,South,177,5.0,6.0,34,0.00,,,0.00,341,WeatherCatV1.10B1570,2013-02-15 21:05:00,
2013-02-15 16:10:00,59.1,30.0,29.97,South,172,5.0,7.0,33,0.00,,,0.00,323,WeatherCatV1.10B1570,2013-02-15 21:10:00,
2013-02-15 16:15:00,58.9,29.9,29.97,SSW,197,2.0,8.0,33,0.00,,,0.00,306,WeatherCatV1.10B1570,2013-02-15 21:15:00,
2013-02-15 16:20:00,58.8,29.8,29.97,SSW,199,0.0,4.0,33,0.00,,,0.00,288,WeatherCatV1.10B1570,2013-02-15 21:20:00,
2013-02-15 16:25:00,59.0,29.9,29.97,WNW,297,2.0,5.0,33,0.00,,,0.00,267,WeatherCatV1.10B1570,2013-02-15 21:25:00,
2013-02-15 16:30:00,58.7,29.7,29.97,SSW,202,2.0,2.0,33,0.00,,,0.00,246,WeatherCatV1.10B1570,2013-02-15 21:30:00,
2013-02-15 16:35:00,58.7,28.9,29.97,WSW,240,1.0,10.0,32,0.00,,,0.00,211,WeatherCatV1.10B1570,2013-02-15 21:35:00,
2013-02-15 16:40:00,58.7,29.7,29.97,SSW,199,3.0,3.0,33,0.00,,,0.00,148,WeatherCatV1.10B1570,2013-02-15 21:40:00,
2013-02-15 16:45:00,58.6,28.1,29.97,SSW,199,4.0,10.0,31,0.00,,,0.00,132,WeatherCatV1.10B1570,2013-02-15 21:45:00,
2013-02-15 16:50:00,58.4,28.7,29.97,South,169,2.0,9.0,32,0.00,,,0.00,102,WeatherCatV1.10B1570,2013-02-15 21:50:00,
2013-02-15 16:55:00,58.2,28.5,29.96,SSW,193,2.0,4.0,32,0.00,,,0.00,81,WeatherCatV1.10B1570,2013-02-15 21:55:00,
2013-02-15 17:00:00,58.2,28.5,29.96,SW,226,0.0,6.0,32,0.00,,,0.00,72,WeatherCatV1.10B1570,2013-02-15 22:00:00,
2013-02-15 17:05:00,58.0,29.1,29.96,SW,233,1.0,4.0,33,0.00,,,0.00,76,WeatherCatV1.10B1570,2013-02-15 22:05:00,
2013-02-15 17:10:00,57.8,29.6,29.96,South,191,2.0,8.0,34,0.00,,,0.00,54,WeatherCatV1.10B1570,2013-02-15 22:10:00,
2013-02-15 17:15:00,57.5,28.6,29.96,SW,216,5.0,8.0,33,0.00,,,0.00,32,WeatherCatV1.10B1570,2013-02-15 22:15:00,
2013-02-15 17:20:00,57.3,29.2,29.96,SSW,199,4.0,5.0,34,0.00,,,0.00,28,WeatherCatV1.10B1570,2013-02-15 22:20:00,
2013-02-15 17:25:00,57.1,29.0,29.96,SSW,192,4.0,7.0,34,0.00,,,0.00,25,WeatherCatV1.10B1570,2013-02-15 22:25:00,
2013-02-15 17:30:00,56.7,29.4,29.96,SSW,203,1.0,3.0,35,0.00,,,0.00,21,WeatherCatV1.10B1570,2013-02-15 22:30:00,
2013-02-15 17:35:00,56.7,29.4,29.96,SSW,199,2.0,3.0,35,0.00,,,0.00,19,WeatherCatV1.10B1570,2013-02-15 22:35:00,
2013-02-15 17:40:00,56.6,30.0,29.96,South,186,0.0,4.0,36,0.00,,,0.00,16,WeatherCatV1.10B1570,2013-02-15 22:40:00,
2013-02-15 17:45:00,56.3,29.7,29.96,South,191,0.0,2.0,36,0.00,,,0.00,12,WeatherCatV1.10B1570,2013-02-15 22:45:00,
2013-02-15 17:50:00,56.0,28.7,29.96,SW,222,2.0,5.0,35,0.00,,,0.00,9,WeatherCatV1.10B1570,2013-02-15 22:50:00,
2013-02-15 17:55:00,56.2,28.9,29.96,SW,226,1.0,2.0,35,0.00,,,0.00,7,WeatherCatV1.10B1570,2013-02-15 22:55:00,
2013-02-15 18:00:00,55.9,29.3,29.96,SW,226,1.0,1.0,36,0.00,,,0.00,0,WeatherCatV1.10B1570,2013-02-15 23:00:00,
2013-02-15 18:05:00,55.5,29.0,29.96,SW,226,0.0,1.0,36,0.00,,,0.00,0,WeatherCatV1.10B1570,2013-02-15 23:05:00,
2013-02-15 18:10:00,54.8,29.0,29.96,SW,226,1.0,2.0,37,0.00,,,0.00,0,WeatherCatV1.10B1570,2013-02-15 23:10:00,
2013-02-15 18:15:00,54.2,29.2,29.97,SW,226,0.0,0.0,38,0.00,,,0.00,0,WeatherCatV1.10B1570,2013-02-15 23:15:00,
2013-02-15 18:20:00,54.3,28.6,29.97,SW,226,0.0,0.0,37,0.00,,,0.00,0,WeatherCatV1.10B1570,2013-02-15 23:20:00,
2013-02-15 18:25:00,53.3,30.2,29.97,SW,226,0.0,0.0,41,0.00,,,0.00,0,WeatherCatV1.10B1570,2013-02-15 23:25:00,
2013-02-15 18:30:00,52.3,31.0,29.97,SW,226,0.0,0.0,44,0.00,,,0.00,0,WeatherCatV1.10B1570,2013-02-15 23:30:00,
2013-02-15 18:35:00,51.8,30.6,29.97,SW,226,0.0,0.0,44,0.00,,,0.00,0,WeatherCatV1.10B1570,2013-02-15 23:35:00,
2013-02-15 18:40:00,51.3,30.1,29.97,SW,226,0.0,0.0,44,0.00,,,0.00,0,WeatherCatV1.10B1570,2013-02-15 23:40:00,
2013-02-15 18:45:00,50.9,30.9,29.97,SW,226,0.0,0.0,46,0.00,,,0.00,0,WeatherCatV1.10B1570,2013-02-15 23:45:00,
2013-02-15 18:50:00,50.3,31.4,29.97,SW,226,0.0,0.0,48,0.00,,,0.00,0,WeatherCatV1.10B1570,2013-02-15 23:50:00,
2013-02-15 18:55:00,49.2,31.9,29.97,SW,226,0.0,0.0,51,0.00,,,0.00,0,WeatherCatV1.10B1570,2013-02-15 23:55:00,
2013-02-15 19:00:00,48.7,31.4,29.97,SW,226,0.0,0.0,51,0.00,,,0.00,0,WeatherCatV1.10B1570,2013-02-16 00:00:00,
2013-02-15 19:05:00,49.6,30.2,29.97,SW,226,0.0,1.0,47,0.00,,,0.00,0,WeatherCatV1.10B1570,2013-02-16 00:05:00,
2013-02-15 19:10:00,50.4,30.9,29.97,SW,226,0.0,0.0,47,0.00,,,0.00,0,WeatherCatV1.10B1570,2013-02-16 00:10:00,
2013-02-15 19:15:00,49.8,31.9,29.97,SW,226,0.0,0.0,50,0.00,,,0.00,0,WeatherCatV1.10B1570,2013-02-16 00:15:00,
2013-02-15 19:20:00,48.8,32.4,29.97,SW,226,0.0,0.0,53,0.00,,,0.00,0,WeatherCatV1.10B1570,2013-02-16 00:20:00,
2013-02-15 19:25:00,49.3,32.4,29.97,SW,226,0.0,0.0,52,0.00,,,0.00,0,WeatherCatV1.10B1570,2013-02-16 00:25:00,
2013-02-15 19:30:00,49.5,32.1,29.97,SW,226,0.0,0.0,51,0.00,,,0.00,0,WeatherCatV1.10B1570,2013-02-16 00:30:00,
2013-02-15 19:35:00,49.5,32.6,29.97,SW,226,0.0,0.0,52,0.00,,,0.00,0,WeatherCatV1.10B1570,2013-02-16 00:35:00,
2013-02-15 19:40:00,50.1,32.7,29.97,SW,226,0.0,1.0,51,0.00,,,0.00,0,WeatherCatV1.10B1570,2013-02-16 00:40:00,
2013-02-15 19:45:00,50.2,32.8,29.97,SW,226,0.0,0.0,51,0.00,,,0.00,0,WeatherCatV1.10B1570,2013-02-16 00:45:00,
2013-02-15 19:50:00,50.2,32.3,29.97,SW,226,0.0,0.0,50,0.00,,,0.00,0,WeatherCatV1.10B1570,2013-02-16 00:50:00,
2013-02-15 19:55:00,50.4,32.5,29.97,SW,226,0.0,0.0,50,0.00,,,0.00,0,WeatherCatV1.10B1570,2013-02-16 00:55:00,
2013-02-15 20:00:00,50.3,32.4,29.97,SW,226,0.0,0.0,50,0.00,,,0.00,0,WeatherCatV1.10B1570,2013-02-16 01:00:00,
2013-02-15 20:05:00,50.1,32.7,29.97,SW,226,0.0,0.0,51,0.00,,,0.00,0,WeatherCatV1.10B1570,2013-02-16 01:05:00,
2013-02-15 20:10:00,50.3,31.9,29.97,SW,226,0.0,0.0,49,0.00,,,0.00,0,WeatherCatV1.10B1570,2013-02-16 01:10:00,
2013-02-15 20:15:00,50.7,31.7,29.97,SW,226,0.0,0.0,48,0.00,,,0.00,0,WeatherCatV1.10B1570,2013-02-16 01:15:00,
2013-02-15 20:20:00,50.9,31.9,29.97,SW,226,0.0,0.0,48,0.00,,,0.00,0,WeatherCatV1.10B1570,2013-02-16 01:20:00,
2013-02-15 20:25:00,51.0,31.5,29.97,SW,226,0.0,0.0,47,0.00,,,0.00,0,WeatherCatV1.10B1570,2013-02-16 01:25:00,
2013-02-15 20:30:00,51.5,30.9,29.98,SW,226,0.0,0.0,45,0.00,,,0.00,0,WeatherCatV1.10B1570,2013-02-16 01:30:00,
2013-02-15 20:35:00,51.4,33.9,29.98,NW,322,3.0,3.0,51,0.00,,,0.00,0,WeatherCatV1.10B1570,2013-02-16 01:35:00,
2013-02-15 20:40:00,50.4,32.5,29.98,WNW,282,1.0,2.0,50,0.00,,,0.00,0,WeatherCatV1.10B1570,2013-02-16 01:40:00,
2013-02-15 20:45:00,50.1,33.2,29.98,NW,311,1.0,2.0,52,0.00,,,0.00,0,WeatherCatV1.10B1570,2013-02-16 01:45:00,
2013-02-15 20:50:00,50.0,34.0,29.98,NW,311,0.0,0.0,54,0.00,,,0.00,0,WeatherCatV1.10B1570,2013-02-16 01:50:00,
2013-02-15 20:55:00,50.0,32.1,29.98,NW,311,0.0,1.0,50,0.00,,,0.00,0,WeatherCatV1.10B1570,2013-02-16 01:55:00,
2013-02-15 21:00:00,50.4,32.5,29.99,NW,311,1.0,2.0,50,0.00,,,0.00,0,WeatherCatV1.10B1570,2013-02-16 02:00:00,
2013-02-15 21:05:00,50.3,33.4,29.99,NW,311,1.0,3.0,52,0.00,,,0.00,0,WeatherCatV1.10B1570,2013-02-16 02:05:00,
2013-02-15 21:10:00,50.3,32.9,30.00,NW,321,2.0,4.0,51,0.00,,,0.00,0,WeatherCatV1.10B1570,2013-02-16 02:10:00,
2013-02-15 21:15:00,50.9,32.9,30.00,NW,324,4.0,8.0,50,0.00,,,0.00,0,WeatherCatV1.10B1570,2013-02-16 02:15:00,
2013-02-15 21:20:00,51.2,35.1,30.00,NNW,342,3.0,10.0,54,0.00,,,0.00,0,WeatherCatV1.10B1570,2013-02-16 02:20:00,
2013-02-15 21:25:00,51.2,36.5,30.00,North,355,7.0,17.0,57,0.00,,,0.00,0,WeatherCatV1.10B1570,2013-02-16 02:25:00,
2013-02-15 21:30:00,51.1,37.3,30.00,NNW,348,2.0,9.0,59,0.00,,,0.00,0,WeatherCatV1.10B1570,2013-02-16 02:30:00,
2013-02-15 21:35:00,50.8,37.4,30.00,North,353,9.0,12.0,60,0.00,,,0.00,0,WeatherCatV1.10B1570,2013-02-16 02:35:00,
2013-02-15 21:40:00,50.3,37.4,30.01,ENE,76,6.0,16.0,61,0.00,,,0.00,0,WeatherCatV1.10B1570,2013-02-16 02:40:00,
2013-02-15 21:45:00,49.2,37.5,30.01,North,1,6.0,8.0,64,0.00,,,0.00,0,WeatherCatV1.10B1570,2013-02-16 02:45:00,
2013-02-15 21:50:00,48.2,37.4,30.02,NNW,334,4.0,9.0,66,0.00,,,0.00,0,WeatherCatV1.10B1570,2013-02-16 02:50:00,
2013-02-15 21:55:00,47.4,37.4,30.01,North,9,4.0,11.0,68,0.00,,,0.00,0,WeatherCatV1.10B1570,2013-02-16 02:55:00,
2013-02-15 22:00:00,47.0,37.4,30.02,NW,321,7.0,7.0,69,0.00,,,0.00,0,WeatherCatV1.10B1570,2013-02-16 03:00:00,
2013-02-15 22:05:00,46.5,37.3,30.02,NW,315,4.0,10.0,70,0.00,,,0.00,0,WeatherCatV1.10B1570,2013-02-16 03:05:00,
2013-02-15 22:10:00,46.3,37.1,30.03,NNW,340,6.0,14.0,70,0.00,,,0.00,0,WeatherCatV1.10B1570,2013-02-16 03:10:00,
2013-02-15 22:15:00,46.0,36.8,30.03,NNW,332,6.0,8.0,70,0.00,,,0.00,0,WeatherCatV1.10B1570,2013-02-16 03:15:00,
2013-02-15 22:20:00,45.8,36.9,30.03,NW,321,2.0,6.0,71,0.00,,,0.00,0,WeatherCatV1.10B1570,2013-02-16 03:20:00,
2013-02-15 22:25:00,45.6,36.7,30.03,NNW,337,3.0,7.0,71,0.00,,,0.00,0,WeatherCatV1.10B1570,2013-02-16 03:25:00,
2013-02-15 22:30:00,45.4,36.2,30.03,NNW,343,4.0,5.0,70,0.00,,,0.00,0,WeatherCatV1.10B1570,2013-02-16 03:30:00,
2013-02-15 22:35:00,45.3,36.1,30.03,NNW,328,8.0,8.0,70,0.00,,,0.00,0,WeatherCatV1.10B1570,2013-02-16 03:35:00,
2013-02-15 22:40:00,45.2,36.4,30.03,NNW,332,3.0,4.0,71,0.00,,,0.00,0,WeatherCatV1.10B1570,2013-02-16 03:40:00,
2013-02-15 22:45:00,45.1,36.6,30.03,NNW,331,5.0,11.0,72,0.00,,,0.00,0,WeatherCatV1.10B1570,2013-02-16 03:45:00,
2013-02-15 22:50:00,44.7,36.2,30.03,NW,322,4.0,9.0,72,0.00,,,0.00,0,WeatherCatV1.10B1570,2013-02-16 03:50:00,
2013-02-15 22:55:00,44.5,36.0,30.03,NE,36,4.0,11.0,72,0.00,,,0.00,0,WeatherCatV1.10B1570,2013-02-16 03:55:00,
2013-02-15 23:00:00,44.2,35.0,30.03,North,4,6.0,10.0,70,0.00,,,0.00,0,WeatherCatV1.10B1570,2013-02-16 04:00:00,
2013-02-15 23:05:00,44.0,34.9,30.03,NNW,337,7.0,9.0,70,0.00,,,0.00,0,WeatherCatV1.10B1570,2013-02-16 04:05:00,
2013-02-15 23:10:00,43.7,34.2,30.03,NNW,332,6.0,10.0,69,0.00,,,0.00,0,WeatherCatV1.10B1570,2013-02-16 04:10:00,
2013-02-15 23:15:00,43.5,34.0,30.03,NNW,335,6.0,7.0,69,0.00,,,0.00,0,WeatherCatV1.10B1570,2013-02-16 04:15:00,
2013-02-15 23:20:00,43.3,33.5,30.03,NE,48,3.0,5.0,68,0.00,,,0.00,0,WeatherCatV1.10B1570,2013-02-16 04:20:00,
2013-02-15 23:25:00,42.9,33.4,30.02,NNW,336,4.0,7.0,69,0.00,,,0.00,0,WeatherCatV1.10B1570,2013-02-16 04:25:00,
2013-02-15 23:30:00,42.8,33.3,30.03,NNW,330,4.0,6.0,69,0.00,,,0.00,0,WeatherCatV1.10B1570,2013-02-16 04:30:00,
2013-02-15 23:35:00,42.5,33.1,30.02,NNW,348,3.0,9.0,69,0.00,,,0.00,0,WeatherCatV1.10B1570,2013-02-16 04:35:00,
2013-02-15 23:40:00,42.4,33.0,30.02,North,9,4.0,5.0,69,0.00,,,0.00,0,WeatherCatV1.10B1570,2013-02-16 04:40:00,
2013-02-15 23:45:00,42.2,32.8,30.02,NW,323,2.0,5.0,69,0.00,,,0.00,0,WeatherCatV1.10B1570,2013-02-16 04:45:00,
2013-02-15 23:50:00,42.2,32.8,30.02,NNW,334,4.0,6.0,69,0.00,,,0.00,0,WeatherCatV1.10B1570,2013-02-16 04:50:00,
2013-02-15 23:55:00,42.1,32.7,30.02,NW,326,3.0,4.0,69,0.00,,,0.00,0,WeatherCatV1.10B1570,2013-02-16 04:55:00,